Weather observations for the past three days for
Olathe, Johnson County Executive Airport
Imperial (Metric)
Date Time (cdt) Wind (mph) Vis. (mi.) Weather Sky Cond. Temperature (ºF) Relative Humidity Wind Chill (°F) Heat Index (°F) Pressure Precipitation (in)
Air Dwpt 6 hour altimeter (in) sea level (mb) 1 hr 3 hr 6 hr
Max. Min.
22 11:53 NW 5 10.00 Partly Cloudy SCT037 79 61 54% 80 30.1 1018.1
22 09:53 Calm 10.00 Fair CLR 75.9 63 64% 78 30.11 1018.5
22 08:53 Calm 10.00 A Few Clouds FEW090 72 64 76% 30.11 1018.6
22 07:53 Calm 10.00 A Few Clouds FEW085 69.1 64 84% 30.1 1018.2
22 06:53 Calm 9.00 Fair CLR 66 63 69.1 63 90% 30.08 1017.7
22 05:53 Calm 10.00 Fair CLR 63 61 93% 30.08 1017.6
22 04:53 Calm 10.00 Fair CLR 64 62.1 93% 30.07 1017.3
22 03:53 Calm 10.00 Fair CLR 64 62.1 93% 30.08 1017.6
22 02:53 Calm 10.00 Fair CLR 66 63 90% 30.09 1017.9
22 01:53 Calm 10.00 Fair CLR 66 62.1 87% 30.09 1018.0
22 00:53 Calm 10.00 Fair CLR 69.1 63 79 69.1 81% 30.1 1018.3
21 23:53 NE 5 10.00 Fair CLR 70 62.1 76% 30.11 1018.7
21 22:53 E 5 10.00 Fair CLR 71.1 61 71% 30.11 1018.7
21 21:53 NE 3 10.00 Fair CLR 73 60.1 64% 30.1 1018.4
21 20:53 NE 3 10.00 Fair CLR 73.9 60.1 62% 30.08 1017.8
21 18:53 NE 6 10.00 Fair CLR 79 60.1 81 77 52% 80 30.07 1017.1
21 17:53 N 8 10.00 Fair CLR 80.1 61 52% 81 30.08 1017.5
21 16:53 NE 7 10.00 Overcast OVC075 79 61 54% 80 30.09 1018.0
21 15:53 NE 8 10.00 Overcast SCT048 OVC060 78.1 60.1 54% 79 30.11 1018.5
21 14:53 E 12 10.00 Mostly Cloudy BKN050 BKN060 79 59 50% 80 30.12 1019.0
21 13:53 E 10 10.00 Mostly Cloudy BKN048 79 57.9 49% 80 30.13 1019.3
21 12:53 E 7 10.00 Partly Cloudy SCT043 78.1 57 79 66 48% 79 30.14 1019.7
21 11:53 E 12 10.00 Overcast SCT037 OVC100 77 59 54% 79 30.15 1019.9
21 10:53 NE 8 10.00 Partly Cloudy SCT110 75 61 62% 77 30.15 1019.9
21 09:53 N 6 10.00 Overcast OVC110 71.1 62.1 73% 30.15 1020.0
21 08:53 E 3 10.00 Overcast SCT035 OVC110 68 62.1 81% 30.16 1020.4
21 07:53 E 3 10.00 Overcast OVC110 66.9 62.1 84% 30.15 1020.1
21 06:53 E 5 10.00 Overcast OVC065 66 61 68 66 84% 30.13 1019.6
21 05:53 E 5 10.00 Overcast OVC060 66 63 90% 30.12 1019.1
21 04:53 E 3 10.00 Overcast BKN060 OVC085 66.9 63 87% 30.12 1018.9
21 03:53 Calm 10.00 Overcast FEW060 OVC085 66.9 64 91% 30.12 1018.8
21 02:53 E 3 10.00 Overcast OVC075 66.9 64.9 93% 30.12 1019.1
21 01:53 NE 5 10.00 Overcast OVC075 68 64.9 90% 30.13 1019.5
21 00:53 Calm 10.00 Overcast OVC070 66.9 64.9 72 64.9 93% 30.13 1019.4
20 23:53 SE 3 10.00 Overcast OVC070 66 64.9 96% 30.12 1019.2
20 22:53 Calm 10.00 Fair CLR 66.9 64.9 93% 30.13 1019.4
20 21:53 Calm 10.00 Mostly Cloudy BKN042 66.9 64.9 93% 30.13 1019.4
20 20:53 SE 5 10.00 A Few Clouds FEW100 69.1 66 90% 30.12 1019.0
20 19:53 SE 7 10.00 Fair CLR 71.1 64.9 81% 30.1 1018.5
20 18:53 E 3 10.00 Overcast FEW050 SCT065 OVC080 71.1 66 73.9 70 84% 30.1 1018.6 0.02
20 17:53 E 3 10.00 Light Rain FEW080 OVC110 71.1 66.9 87% 30.1 1018.5 0.02
20 16:53 E 6 10.00 Mostly Cloudy FEW018 BKN100 73 64.9 76% 30.1 1018.5
20 15:53 E 8 10.00 Partly Cloudy SCT017 73.9 66 76% 30.11 1018.7
20 14:53 NE 7 10.00 Mostly Cloudy FEW026 SCT070 BKN100 72 66 82% 30.12 1018.9
20 13:53 NE 8 10.00 Mostly Cloudy FEW050 BKN110 71.1 66 84% 30.12 1019.2
20 12:53 NE 5 10.00 Light Rain FEW090 OVC110 70 64.9 71.1 64.9 84% 30.12 1019.2 0.01 0.01
20 11:53 NE 5 10.00 Light Rain OVC110 71.1 64 79% 30.12 1019.1
20 10:53 Calm 10.00 Overcast OVC120 69.1 62.1 78% 30.12 1019.1
20 09:53 Calm 10.00 Overcast OVC100 68 62.1 81% 30.12 1019.2
20 08:53 S 3 10.00 Mostly Cloudy BKN110 66.9 61 81% 30.13 1019.3
20 07:53 Calm 10.00 Fair CLR 66 61 84% 30.11 1018.7
20 06:53 SE 5 10.00 Fair CLR 64.9 60.1 66.9 64.9 84% 30.1 1018.2
20 05:53 SE 3 10.00 Fair CLR 64.9 60.1 84% 30.09 1017.9
20 04:53 E 6 10.00 Fair CLR 66 60.1 81% 30.07 1017.3
20 02:53 SE 5 10.00 Fair CLR 66 59 78% 30.08 1017.6
20 01:53 SE 5 10.00 Fair CLR 66 59 78% 30.07 1017.1
20 00:53 SE 3 10.00 Fair CLR 66.9 59 77 66.9 76% 30.09 1017.9
19 23:53 SE 6 10.00 Fair CLR 68 59 73% 30.09 1017.9
19 22:53 SE 6 10.00 Fair CLR 69.1 59 70% 30.1 1018.3
19 21:53 E 5 10.00 Fair CLR 71.1 59 66% 30.09 1017.8
19 20:53 SE 5 10.00 Fair CLR 73 59 62% 30.08 1017.5
19 19:53 S 5 10.00 Fair CLR 75 59 58% 77 30.09 1017.9
19 18:53 SE 3 10.00 Fair CLR 77 59 81 75.9 54% 79 30.08 1017.6
19 17:53 S 6 10.00 A Few Clouds FEW050 78.1 57.9 50% 79 30.09 1018.1
19 16:53 E 3 10.00 A Few Clouds FEW050 80.1 57 45% 80 30.09 1018.1
19 15:53 Calm 10.00 Fair CLR 81 55.9 42% 81 30.11 1018.6
19 14:53 SE 3 10.00 A Few Clouds FEW045 79 55.9 45% 80 30.12 1019.1
19 13:53 Calm 10.00 A Few Clouds FEW045 79 57 47% 80 30.15 1019.9
19 12:53 SE 8 10.00 A Few Clouds FEW045 77 57.9 78.1 62.1 52% 79 30.16 1020.4
Date Time (cdt) Wind (mph) Vis. (mi.) Weather Sky Cond. Air Dwpt Max. Min. Relative Humidity Wind Chill (°F) Heat Index (°F) altimeter (in) sea level (mb) 1 hr 3 hr 6 hr
6 hour
Temperature (ºF) Pressure Precipitation (in)